Regional Weather Roundup
Issued by NWS

Home | Current Version | Previous Version | Text Only | Print | Product List | Glossary On
Versions: 1 2 3 4 5 6 7 8 9 10 11 12 13 14 15 16 17 18 19 20 21 22 23 24 25 26 27 28 29 30 31 32 33 34 35 36 37 38 39 40 41 42 43 44 45 46 47 48 49 50
000
ASUS45 KBOI 030210
RWRID

IDAHO REGIONAL WEATHER ROUNDUP
NATIONAL WEATHER SERVICE BOISE ID
800 PM MDT MON MAY 02 2016

NOTE: "FAIR" INDICATES FEW OR NO CLOUDS BELOW 12000 FEET
WITH NO SIGNIFICANT WEATHER AND/OR OBSTRUCTIONS TO VISIBILITY

IDZ012-014-030300-
SOUTHWEST IDAHO


CITY           SKY/WX    TMP DP  RH WIND       PRES   REMARKS
BOISE          CLEAR     73  24  16 SE7       30.06F
CALDWELL       CLEAR     72  34  24 SE3       30.05S
$$

IDZ016-017-030300-
SOUTHCENTRAL IDAHO


CITY           SKY/WX    TMP DP  RH WIND       PRES   REMARKS
BURLEY         CLEAR     63  35  35 E7        30.12S
JEROME         CLEAR     64  36  35 NE3       30.13S
TWIN FALLS     CLEAR     64  36  35 CALM      30.13S
$$

IDZ019>023-030300-
SOUTHEAST IDAHO


CITY           SKY/WX    TMP DP  RH WIND       PRES   REMARKS
IDAHO FALLS    CLEAR     66  15  14 CALM      30.16S
POCATELLO      CLEAR     61  37  41 NW6       30.16S
REXBURG        CLEAR     62  20  19 SW8       30.15S
$$

IDZ006-010-011-018-031-032-030300-
CENTRAL IDAHO MOUNTAINS


CITY           SKY/WX    TMP DP  RH WIND       PRES   REMARKS
MCCALL         FAIR      64  33  31 W6        30.12S
HAILEY         CLEAR     57  28  33 SE7       30.18S
STANLEY          N/A     61  22  22 CALM      30.18F
SALMON         CLEAR     66  36  32 W5        30.05S
CHALLIS        CLEAR     69  16  13 CALM      30.11S
$$

IDZ002-004-006-007-026-030300-
NORTHERN IDAHO


CITY           SKY/WX    TMP DP  RH WIND       PRES   REMARKS
LEWISTON       PTCLDY    79  37  22 E5        29.98S
LOWELL           N/A     64  50  60 CALM      29.99S
COEUR D`ALENE  FAIR      75  39  27 SW3       30.00F
MULLAN PASS    PTCLDY    56  30  37 NW6       30.19S
$$



USA.gov is the U.S. government's official web portal to all federal, state and local government web resources and services.